This demonstration page uses our WeatherBlox Daily Observations layout. Learn more.

41.55636, -103.73856

Hourly Observations for December 4, 2019

Temp ( °F °C ) Dew Point ( °F °C ) Humidity (%) Winds ( mph kmh ) Pressure ( in mb ) Visibility ( mi km ) Precip ( " mm )
12:58 am 00:58 Clear 37 2.7 28 -2.1 71 71 W 14 22 30.1 1019 10 16.0934 0 0
1:58 am 01:58 Clear 37 3 28 -2.4 68 68 W 14 22 30.1 1019 10 16.0934 0 0
2:59 am 02:59 Clear 36 2.3 27 -2.9 69 69 W 13 20 30.11 1020 10 16.0934 0 0
3:58 am 03:58 Clear 38 3.2 27 -2.9 65 65 W 14 22 30.11 1020 10 16.0934 0 0
6:58 am 06:58 Clear 38 3.6 27 -2.6 64 64 WNW 22 35 30.08 1019 10 16.0934 0 0
7:58 am 07:58 Clear 36 2 27 -2.8 71 71 WNW 18 30 30.06 1018 10 16.0934 0 0
8:58 am 08:58 Clear 32 0.1 26 -3.6 76 76 SSW 6 9 30.08 1019 10 16.0934 0 0
9:58 am 09:58 Clear 37 2.9 26 -3.2 65 65 WNW 14 22 30.08 1019 10 16.0934 0 0
10:58 am 10:58 Clear 34 1.1 25 -4 69 69 WSW 8 13 30.08 1019 10 16.0934 0 0
11:58 am 11:58 Clear 33 0.4 25 -3.7 74 74 W 12 19 30.08 1019 10 16.0934 0 0
12:58 pm 12:58 Clear 30 -1 24 -4.5 77 77 W 13 20 30.09 1019 10 16.0934 0 0
1:58 pm 13:58 Clear 28 -2.5 22 -5.4 81 81 W 12 19 30.11 1020 10 16.0934 0 0
2:58 pm 14:58 Sunny 30 -1 24 -4.4 78 78 WSW 8 13 30.12 1020 10 16.0934 0 0
3:58 pm 15:58 Sunny 35 1.8 26 -3.4 69 69 W 8 13 30.09 1019 10 16.0934 0 0
4:58 pm 16:58 Sunny 39 3.9 26 -3.1 61 61 WNW 5 7 30.06 1018 10 16.0934 0 0
5:58 pm 17:58 Sunny 40 4.2 27 -3 60 60 Calm 30.04 1017 10 16.0934 0 0
6:58 pm 18:58 Sunny 41 5.2 28 -2.2 59 59 WSW 5 7 30.01 1016 10 16.0934 0 0
7:58 pm 19:58 Sunny 43 6.1 27 -3 52 52 Calm 29.98 1015 10 16.0934 0 0
8:58 pm 20:58 Sunny 44 6.6 28 -2.5 53 53 SE 3 6 29.96 1015 10 16.0934 0 0
9:58 pm 21:58 Sunny 44 6.9 29 -1.9 54 54 Calm 29.94 1014 10 16.0934 0 0
10:58 pm 22:58 Sunny 42 5.5 31 -0.6 65 65 SSW 7 11 29.96 1014 10 16.0934 0 0
11:58 pm 23:58 Clear 40 4.2 29 -1.7 66 66 SSW 7 11 29.97 1015 10 16.0934 0 0

Powered by AerisWeather